Flag for United Kingdom Weather past 2 weeks in Southend-on-Sea, England, United Kingdom

59 °F

Light rain. Broken clouds.

Feels Like: 57 °F
Forecast: 43 / 58 °F
Wind: 12 mph from Southwest

Location: Southend Airport-On-Sea

Current Time: Oct 7, 2015 at 11:09:41 AM

Latest Report: Oct 7, 2015 at 10:50 AM

Visibility: 6 mi

Pressure: 29.71 "Hg

Humidity: 82%

Dew point: 54 °F

Location of Southend-on-SeaLocation

Historic Weather in Southend-on-Sea — Graph


Southend-on-Sea temperature yesterday

Maximum temperature yesterday: 66 °F (at 12:50 PM)
Minimum temperature yesterday: 57 °F (at 7:20 AM)
Average temperature yesterday: 62 °F

Past Weeks' High & Low Weather Summary

High70 °F (Sep 23, 9:20 AM)94% (Sep 28, 7:50 AM)30.66 "Hg (Sep 28, 7:50 AM)
Low39 °F (Sep 26, 7:20 AM)43% (Sep 23, 9:20 AM)29.42 "Hg (Oct 6, 1:50 PM)
Average56 °F76%30.12 "Hg
* Reported Sep 22 9:20 AM — Oct 7 9:50 AM, Southend-on-Sea, Weather by CustomWeather, © 2015

Note: Actual official high and low records may vary slightly from our data, if they occured in-between our weather recording intervals... More about our weather records


Southend-on-Sea weather history for previous 24 hours

Time TempWeatherWind HumidityBarometerVisibility
9:50 AM
Wed, Oct 7
61 °FPartly sunny.10 mph83%29.71 "Hg6 mi
9:20 AM59 °FPartly sunny.10 mph88%29.68 "Hg5 mi
8:50 AM59 °FPartly sunny.10 mph88%29.68 "Hg6 mi
8:20 AM61 °FPartly sunny.9 mph83%29.65 "Hg6 mi
7:50 AM59 °FLow clouds.10 mph88%29.65 "Hg6 mi
7:20 AM59 °FPassing clouds.9 mph88%29.62 "Hg5 mi
6:50 AM59 °FPassing clouds.9 mph88%29.62 "Hg5 mi
6:20 AM57 °FPassing clouds.8 mph88%29.59 "HgN/A
5:50 AM57 °FPassing clouds.8 mph88%29.59 "HgN/A
5:20 AM57 °FPartly cloudy.9 mph88%29.59 "HgN/A
4:50 AM57 °FPartly cloudy.10 mph88%29.56 "HgN/A
4:20 AM59 °FPartly cloudy.12 mph88%29.56 "HgN/A
3:50 AM59 °FPassing clouds.12 mph88%29.53 "HgN/A
2:50 AM59 °FPassing clouds.12 mph88%29.53 "HgN/A
1:50 AM59 °FPassing clouds.10 mph88%29.50 "HgN/A
11:20 PM
Tue, Oct 6
59 °FPassing clouds.10 mph88%29.45 "HgN/A
10:50 PM59 °FPassing clouds.10 mph88%29.45 "HgN/A
10:20 PM59 °FPassing clouds.9 mph88%29.42 "HgN/A
9:20 PM59 °FPassing clouds.8 mph88%29.42 "HgN/A
8:50 PM59 °FPassing clouds.6 mph88%29.42 "HgN/A
8:20 PM59 °FPassing clouds.8 mph88%29.42 "HgN/A
7:50 PM59 °FPassing clouds.12 mph88%29.42 "HgN/A
7:20 PM61 °FPassing clouds.9 mph83%29.42 "HgN/A
6:50 PM61 °FScattered showers. Scattered clouds.7 mph83%29.42 "Hg5 mi
6:20 PM61 °FScattered showers. Partly sunny.12 mph83%29.42 "Hg5 mi
5:50 PM64 °FScattered showers. Partly sunny.9 mph73%29.42 "HgN/A
5:20 PM63 °FScattered clouds.8 mph73%29.42 "HgN/A
4:50 PM64 °FScattered clouds.10 mph68%29.42 "HgN/A
4:20 PM64 °FScattered clouds.13 mph68%29.42 "HgN/A
3:50 PM64 °FScattered clouds.13 mph68%29.42 "HgN/A
3:20 PM66 °FScattered clouds.15 mph68%29.42 "HgN/A
2:50 PM66 °FScattered clouds.15 mph68%29.42 "HgN/A
2:20 PM64 °FScattered clouds.17 mph73%29.42 "HgN/A
1:50 PM64 °FScattered clouds.15 mph73%29.42 "HgN/A
1:20 PM66 °FBroken clouds.15 mph73%29.45 "HgN/A
12:50 PM66 °FScattered clouds.13 mph78%29.45 "HgN/A
12:20 PM64 °FPartly sunny.8 mph88%29.45 "HgN/A
11:50 AM63 °FPartly sunny.8 mph88%29.45 "Hg5 mi
11:20 AM63 °FBroken clouds.12 mph88%29.45 "Hg4 mi
Weather by CustomWeather, © 2015

See weather overviewHow to use our weather pages